Tracking 26257 objects as of 4-Oct-2022
HD Live streaming from Space Station
objects crossing your sky now

USA 313

Track USA 313 now!
10-day predictions


NORAD ID: 47295
Int'l Code: 2020-101B
Perigee: 519.2 km
Apogee: 534.2 km
Inclination: 53.0 °
Period: 95.0 minutes
Semi major axis: 6897 km
RCS: Unknown
Launch date: December 19, 2020
Source: United States (US)
Launch site: AIR FORCE EASTERN TEST RANGE (AFETR)
aabbcc
Your satellite tracking list
Your tracking list is empty




NASA's NSSDC Master Catalog

Two Line Element Set (TLE):
1 47295U 20101B   22261.82400804 0.00005400  00000-0  28105-3 0    01
2 47295  52.9994 174.4000 0010819 150.9535 209.0463 15.15469786    06
Source of the keplerian elements: McCants